Weather History for Cullman Regional Airport, LA

Change the Weather History Date:

Monday, October 7, 2013

  Actual Average Record
Temperature  
Mean Temperature 59 °F -  
Max Temperature 68 °F - - ()
Min Temperature 50 °F - - ()
Degree Days  
Heating Degree Days 6    
Growing Degree Days 9 (Base 50)    
Moisture  
Dew Point 48 °F    
Average Humidity 73    
Maximum Humidity 99    
Minimum Humidity 45    
Precipitation  
Precipitation 0.00 in - - ()
Sea Level Pressure  
Sea Level Pressure 30.01 in    
Wind  
Wind Speed 6 mph (North)    
Max Wind Speed 13 mph    
Max Gust Speed 21 mph    
Visibility 10 miles    
Events      
T = Trace of Precipitation, MM = Missing Value Source: NWS Daily Summary

Daily Weather History Graph

Daily Weather History Graph

Search for Another Location

Airport:

Trip Planner

Search our weather history database for the weather conditions in past years. The results will help you decide how hot, cold, wet, or windy it might be!

Date:

Astronomy

Oct. 07, 2013 Rise Set
Actual Time 6:46 AM CDT 6:23 PM CDT
Civil Twilight 6:21 AM CDT 6:48 PM CDT
Nautical Twilight 5:52 AM CDT 7:17 PM CDT
Astronomical Twilight 5:23 AM CDT 7:46 PM CDT
Moon 9:28 AM CDT (10/7) 8:16 PM CDT (10/7)
Length of Visible Light 12h 26m
Length of Day
11h 36m
Waxing Crescent, 9% of the Moon is Illuminated
Oct 7
Waxing Crescent
Oct 11
First Quarter
Oct 18
Full
Oct 26
Last Quarter
Nov 3
New

Hourly Weather History & Observations

Time (CDT) Temp. Dew Point Humidity Pressure Visibility Wind Dir Wind Speed Gust Speed Precip Events Conditions
12:15 AM 55.6 °F 52.3 °F 89% 29.94 in 10.0 mi North 8.1 mph - N/A   Overcast
12:35 AM 55.8 °F 52.0 °F 87% 29.94 in 10.0 mi North 9.2 mph - N/A   Overcast
12:55 AM 55.9 °F 51.6 °F 85% 29.95 in 10.0 mi North 6.9 mph - N/A   Overcast
1:15 AM 56.3 °F 51.3 °F 83% 29.95 in 10.0 mi North 4.6 mph - N/A   Overcast
1:35 AM 56.1 °F 51.3 °F 84% 29.95 in 10.0 mi North 5.8 mph - N/A   Scattered Clouds
1:55 AM 55.2 °F 51.3 °F 87% 29.95 in 10.0 mi North 4.6 mph - N/A   Clear
2:15 AM 54.5 °F 51.4 °F 89% 29.95 in 10.0 mi NNE 3.5 mph - N/A   Clear
2:35 AM 53.6 °F 51.4 °F 92% 29.95 in 10.0 mi Calm Calm - N/A   Clear
2:55 AM 53.1 °F 51.4 °F 94% 29.95 in 10.0 mi Calm Calm - N/A   Clear
3:15 AM 52.2 °F 51.1 °F 96% 29.95 in 10.0 mi Calm Calm - N/A   Clear
3:35 AM 51.3 °F 50.5 °F 97% 29.95 in 10.0 mi Calm Calm - N/A   Clear
3:55 AM 51.3 °F 50.9 °F 99% 29.95 in 10.0 mi Calm Calm - N/A   Clear
4:15 AM 50.9 °F 50.4 °F 98% 29.96 in 10.0 mi Calm Calm - N/A   Clear
4:35 AM 51.3 °F 50.9 °F 99% 29.97 in 10.0 mi Calm Calm - N/A   Mostly Cloudy
4:55 AM 52.0 °F 51.8 °F 99% 29.97 in 4.0 mi NNW 3.5 mph - N/A   Overcast
5:15 AM 52.7 °F 52.5 °F 99% 29.97 in 10.0 mi NNW 4.6 mph - N/A   Overcast
5:35 AM 52.7 °F 52.0 °F 97% 29.97 in 10.0 mi North 5.8 mph - N/A   Overcast
5:55 AM 52.7 °F 51.8 °F 97% 29.97 in 10.0 mi North 4.6 mph - N/A   Overcast
6:15 AM 52.3 °F 51.4 °F 97% 29.97 in 10.0 mi North 5.8 mph - N/A   Overcast
6:35 AM 52.3 °F 51.1 °F 95% 29.98 in 10.0 mi North 6.9 mph - N/A   Overcast
6:55 AM 52.0 °F 50.7 °F 95% 29.98 in 10.0 mi NNE 6.9 mph - N/A   Overcast
7:15 AM 52.0 °F 50.5 °F 95% 29.99 in 10.0 mi North 8.1 mph - N/A   Overcast
7:35 AM 52.0 °F 50.4 °F 94% 29.99 in 10.0 mi NNE 6.9 mph - N/A   Scattered Clouds
7:55 AM 53.1 °F 50.4 °F 91% 30.00 in 10.0 mi North 5.8 mph - N/A   Clear
8:15 AM 54.1 °F 50.4 °F 87% 30.01 in 10.0 mi North 5.8 mph - N/A   Clear
8:35 AM 55.4 °F 49.5 °F 80% 30.02 in 10.0 mi NNE 6.9 mph - N/A   Clear
8:55 AM 56.8 °F 47.8 °F 72% 30.02 in 10.0 mi NNE 8.1 mph - N/A   Clear
9:15 AM 57.9 °F 46.6 °F 66% 30.02 in 10.0 mi NNE 10.4 mph - N/A   Clear
9:35 AM 59.2 °F 46.2 °F 62% 30.02 in 10.0 mi North 8.1 mph - N/A   Clear
10:15 AM 61.3 °F 45.3 °F 56% 30.03 in 10.0 mi North 8.1 mph - N/A   Clear
10:35 AM 62.4 °F 45.1 °F 53% 30.03 in 10.0 mi North 11.5 mph 17.3 mph N/A   Clear
10:55 AM 62.8 °F 45.3 °F 53% 30.03 in 10.0 mi North 11.5 mph - N/A   Clear
11:15 AM 63.5 °F 45.5 °F 52% 30.03 in 10.0 mi North 10.4 mph 17.3 mph N/A   Clear
11:35 AM 64.6 °F 45.1 °F 49% 30.03 in 10.0 mi NNW 11.5 mph 16.1 mph N/A   Clear
11:55 AM 64.4 °F 44.8 °F 49% 30.03 in 10.0 mi North 5.8 mph - N/A   Clear
12:15 PM 65.1 °F 45.3 °F 49% 30.03 in 10.0 mi NNW 8.1 mph - N/A   Clear
12:35 PM 65.7 °F 45.5 °F 48% 30.02 in 10.0 mi NNW 10.4 mph 16.1 mph N/A   Clear
12:55 PM 66.0 °F 44.8 °F 46% 30.03 in 10.0 mi North 9.2 mph 16.1 mph N/A   Clear
1:15 PM 66.2 °F 44.8 °F 46% 30.02 in 10.0 mi North 9.2 mph - N/A   Clear
1:35 PM 67.1 °F 45.0 °F 45% 30.01 in 10.0 mi North 6.9 mph - N/A   Clear
1:55 PM 67.6 °F 45.5 °F 45% 30.01 in 10.0 mi NNW 9.2 mph 18.4 mph N/A   Clear
2:15 PM 67.6 °F 45.5 °F 45% 30.01 in 10.0 mi NNW 12.7 mph 20.7 mph N/A   Clear
2:35 PM 68.0 °F 45.9 °F 45% 30.01 in 10.0 mi NW 10.4 mph 16.1 mph N/A   Clear
2:55 PM 67.6 °F 45.7 °F 45% 30.01 in 10.0 mi North 9.2 mph 17.3 mph N/A   Clear
4:15 PM 67.5 °F 46.2 °F 46% 30.01 in 10.0 mi North 8.1 mph - N/A   Clear
4:35 PM 67.1 °F 46.6 °F 48% 30.01 in 10.0 mi North 10.4 mph 16.1 mph N/A   Clear
4:55 PM 67.1 °F 47.1 °F 49% 30.01 in 10.0 mi North 8.1 mph - N/A   Clear
5:15 PM 66.4 °F 47.3 °F 50% 30.01 in 10.0 mi North 8.1 mph - N/A   Clear
5:35 PM 65.7 °F 47.3 °F 51% 30.02 in 10.0 mi North 4.6 mph - N/A   Clear
5:55 PM 64.6 °F 47.7 °F 54% 30.02 in 10.0 mi North 4.6 mph - N/A   Clear
6:15 PM 62.8 °F 48.2 °F 59% 30.02 in 10.0 mi North 4.6 mph - N/A   Clear
6:35 PM 60.8 °F 47.8 °F 62% 30.03 in 10.0 mi North 3.5 mph - N/A   Clear
6:55 PM 59.2 °F 48.0 °F 66% 30.03 in 10.0 mi North 3.5 mph - N/A   Clear
7:15 PM 58.1 °F 48.2 °F 70% 30.03 in 10.0 mi North 4.6 mph - N/A   Clear
7:35 PM 57.9 °F 48.2 °F 70% 30.04 in 10.0 mi North 5.8 mph - N/A   Clear
7:55 PM 57.2 °F 48.2 °F 72% 30.05 in 10.0 mi NNE 5.8 mph - N/A   Clear
8:15 PM 56.5 °F 48.2 °F 74% 30.06 in 10.0 mi North 6.9 mph - N/A   Clear
8:35 PM 56.3 °F 48.2 °F 74% 30.06 in 10.0 mi North 6.9 mph - N/A   Clear
8:55 PM 56.3 °F 48.2 °F 74% 30.07 in 10.0 mi North 4.6 mph - N/A   Clear
9:15 PM 55.8 °F 48.2 °F 76% 30.08 in 10.0 mi NNE 4.6 mph - N/A   Clear
9:35 PM 54.0 °F 48.2 °F 81% 30.08 in 10.0 mi North 4.6 mph - N/A   Clear
9:55 PM 54.3 °F 48.0 °F 79% 30.08 in 10.0 mi North 6.9 mph - N/A   Clear
10:15 PM 54.7 °F 47.8 °F 78% 30.09 in 10.0 mi NNE 6.9 mph - N/A   Clear
10:35 PM 54.3 °F 47.8 °F 79% 30.09 in 10.0 mi North 6.9 mph - N/A   Clear
10:55 PM 54.5 °F 47.5 °F 77% 30.09 in 10.0 mi North 6.9 mph - N/A   Clear
11:15 PM 54.0 °F 47.5 °F 79% 30.09 in 10.0 mi North 5.8 mph - N/A   Clear
11:35 PM 53.4 °F 47.3 °F 80% 30.08 in 10.0 mi North 5.8 mph - N/A   Clear
11:55 PM 52.7 °F 47.3 °F 82% 30.08 in 10.0 mi North 4.6 mph - N/A   Clear